Wetbulb
32.92 31.60 30.72 30.81 32.32 32.59 33.86 32.55 32.63 40.38 41.42 41.25 41.38 41.53 41.68 41.12 41.06 41.34 41.48 41.36 41.45 42.38 43.23 43.57 43.50 43.60 44.13
29.60 30.00 30.38 30.04 30.22 30.23 34.51 35.59 32.36 38.67 40.42 40.29 40.40 40.72 40.34 39.93 39.97 40.30 39.98 39.56 40.38 41.22 41.24 41.70 42.18 42.56 42.82
29.39 29.80 29.87 29.98 30.48 30.38 30.78 30.39 34.70 38.03 38.79 39.23 39.83 38.97 38.88 39.17 39.14 38.78 38.14 38.74 39.55 39.64 39.95 40.36 40.62 40.92 41.61
30.03 30.01 30.29 30.69 29.14 27.97 28.73 30.21 30.66 34.44 35.67 36.39 36.90 37.19 37.53 37.93 37.27 36.72 37.28 38.14 38.77 39.15 39.34 39.16 39.06 39.47 40.02
29.69 29.51 28.63 28.37 27.77 29.22 28.83 28.95 29.75 30.25 29.86 30.12 29.69 29.97 30.53 33.90 34.04 35.97 37.09 37.71 38.20 38.54 38.69 38.68 38.54 38.61 39.09
28.45 28.05 27.79 28.10 28.56 28.47 28.47 27.81 26.37 29.99 27.80 27.73 28.41 28.33 28.31 28.87 34.95 36.16 36.68 37.14 37.54 37.41 37.49 37.68 37.62 37.84 38.04
28.56 27.94 27.81 28.57 28.80 28.50 28.74 28.02 27.47 29.01 27.28 25.73 27.13 26.76 27.89 30.92 34.33 35.59 36.06 36.38 36.19 36.40 36.39 36.51 36.75 36.82 36.98
30.40 29.71 29.71 30.26 29.65 30.14 29.13 27.96 27.71 27.72 27.59 24.35 25.76 25.74 28.42 28.99 33.98 34.52 35.16 35.16 35.31 35.53 35.64 35.65 35.62 35.85 36.15
35.80 35.41 35.39 35.27 34.35 28.72 26.54 25.18 24.56 25.51 27.04 26.59 25.29 25.92 27.47 26.10 26.71 32.73 33.90 33.84 34.37 34.70 34.77 34.77 34.85 34.87 32.49
28.28 29.18 29.63 30.19 32.96 28.49 27.43 25.21 24.81 23.48 26.07 24.90 26.05 26.08 21.95 24.32 25.84 27.50 27.11 31.62 33.35 33.33 33.61 33.79 33.74 30.12 29.27
26.53 26.77 27.23 26.72 26.55 26.59 27.00 26.31 22.67 22.97 26.97 26.26 25.01 22.55 24.02 23.20 24.34 26.07 26.68 26.29 27.03 28.10 31.38 32.13 32.80 32.38 29.07
25.71 24.70 24.32 23.50 24.49 25.51 26.43 26.68 26.68 25.87 26.92 26.51 17.85 20.02 22.18 21.26 21.45 24.16 25.76 26.19 26.53 26.36 26.76 29.59 31.43 32.01 32.39
23.75 23.53 22.91 22.69 25.53 24.86 26.15 26.57 25.25 26.46 27.98 26.51 23.35 23.22 21.53 21.70 21.89 22.91 23.80 23.80 25.77 25.37 26.01 26.02 26.04 26.40 25.15
24.12 23.98 24.09 23.50 23.24 23.76 19.47 21.22 17.72 22.26 26.12 25.96 24.84 23.40 21.87 22.39 22.91 22.58 23.18 21.55 24.19 24.72 25.30 25.66 25.93 26.42 26.00
23.67 23.14 24.13 24.23 23.62 22.29 17.93 14.94 19.63 20.71 19.82 22.76 24.97 24.17 23.79 22.84 21.62 22.17 21.56 21.69 23.63 24.17 23.94 23.25 24.18 24.82 25.84
22.87 21.99 20.86 19.76 19.52 20.36 16.63 12.06 16.37 20.75 20.49 21.22 21.06 20.75 21.04 21.55 27.32 22.27 22.26 22.01 23.44 24.09 23.62 21.88 21.64 24.50 26.30
21.14 20.18 20.69 19.93 21.09 15.43 15.09 14.82 20.15 20.52 19.71 20.26 12.34 18.77 16.87 15.57 22.46 29.05 22.95 22.89 23.55 23.03 22.58 20.02 21.19 24.79 26.31
MSLP
1028.90 1029.11 1029.06 1029.10 1029.08 1028.87 1028.85 1029.00 1029.00 1028.56 1028.59 1028.23 1028.09 1027.94 1027.59 1027.36 1027.07 1026.86 1026.43 1026.34 1025.97 1025.58 1024.95 1024.52 1024.12 1023.62 1022.92
1029.29 1029.25 1029.19 1029.32 1029.26 1029.12 1029.03 1029.05 1029.02 1028.77 1028.51 1028.31 1028.20 1027.93 1027.82 1027.26 1026.76 1026.46 1026.35 1026.25 1025.69 1025.35 1024.98 1024.50 1023.85 1023.26 1022.84
1029.26 1029.37 1029.49 1029.42 1029.20 1029.16 1029.28 1029.50 1029.22 1028.80 1028.52 1028.59 1028.57 1028.24 1027.78 1027.49 1027.11 1026.71 1026.16 1025.88 1025.49 1025.15 1024.76 1024.10 1023.56 1023.09 1022.57
1029.54 1029.76 1029.92 1029.66 1029.48 1029.53 1029.69 1029.79 1029.19 1028.58 1028.40 1028.52 1028.23 1028.05 1027.79 1027.39 1027.09 1026.75 1026.10 1025.55 1025.29 1024.77 1024.23 1023.75 1023.25 1022.72 1022.23
1029.75 1030.07 1029.98 1029.62 1029.69 1029.83 1029.91 1029.82 1029.20 1028.93 1028.68 1028.57 1028.50 1027.89 1027.95 1027.45 1026.90 1026.40 1025.84 1025.32 1024.81 1024.27 1023.84 1023.39 1022.83 1022.34 1021.76
1029.88 1030.13 1030.23 1030.21 1030.27 1030.00 1029.79 1029.71 1029.64 1028.92 1028.81 1028.53 1028.18 1028.11 1027.71 1027.32 1026.62 1026.01 1025.52 1024.90 1024.36 1024.00 1023.60 1022.99 1022.51 1021.87 1021.25
1029.30 1029.91 1030.12 1030.00 1030.06 1030.21 1029.84 1029.54 1029.48 1029.10 1029.07 1028.27 1028.30 1027.72 1027.40 1026.89 1026.31 1025.61 1025.01 1024.50 1024.13 1023.67 1023.19 1022.67 1022.01 1021.42 1020.77
1029.57 1030.06 1029.99 1029.70 1029.97 1029.55 1029.55 1029.68 1029.13 1029.02 1028.74 1028.61 1027.82 1027.35 1026.89 1026.48 1025.72 1025.20 1024.72 1024.39 1023.93 1023.43 1022.85 1022.26 1021.61 1020.91 1020.23
1029.15 1029.38 1029.37 1029.49 1029.24 1029.42 1029.61 1029.72 1029.44 1029.02 1028.76 1028.77 1027.92 1027.09 1026.39 1025.72 1025.42 1025.05 1024.67 1024.32 1023.85 1023.22 1022.68 1021.99 1021.30 1020.55 1020.00
1029.68 1029.91 1029.74 1029.70 1029.83 1030.01 1029.65 1029.88 1029.90 1028.98 1028.86 1028.76 1028.10 1027.94 1026.58 1025.56 1025.38 1025.01 1024.71 1024.22 1023.47 1022.95 1022.32 1021.74 1021.14 1020.48 1019.70
1029.94 1029.92 1030.22 1029.92 1030.39 1030.27 1029.46 1029.65 1029.74 1029.49 1028.97 1028.90 1028.40 1028.28 1028.10 1026.51 1025.21 1024.79 1024.33 1023.85 1023.21 1022.59 1022.05 1021.47 1020.87 1020.24 1019.36
1030.08 1030.37 1030.37 1030.38 1030.25 1029.75 1029.38 1029.30 1029.14 1028.97 1028.54 1028.46 1028.49 1028.33 1027.93 1026.88 1025.56 1024.40 1023.94 1023.44 1022.69 1022.08 1021.62 1021.01 1020.41 1019.74 1019.03
1030.45 1030.66 1030.53 1030.31 1029.85 1029.49 1029.07 1028.96 1028.83 1028.45 1027.97 1027.89 1027.99 1027.66 1027.48 1026.81 1025.64 1024.60 1023.53 1022.74 1022.28 1021.73 1021.14 1020.62 1019.96 1019.25 1018.45
1030.45 1030.37 1030.09 1030.03 1029.82 1029.60 1029.46 1029.05 1028.69 1028.15 1027.72 1027.62 1027.45 1027.20 1026.80 1026.11 1025.42 1024.28 1023.65 1023.23 1022.03 1021.35 1020.66 1020.09 1019.31 1018.71 1018.13
1030.21 1030.11 1030.13 1030.09 1029.81 1029.45 1029.24 1029.10 1029.31 1028.68 1027.92 1027.17 1026.69 1026.59 1026.15 1025.55 1024.74 1023.81 1023.09 1022.42 1021.67 1020.83 1020.25 1019.52 1018.78 1018.20 1017.48
1030.05 1030.14 1030.13 1029.89 1029.69 1029.44 1029.50 1029.65 1029.41 1028.61 1027.78 1027.06 1026.60 1026.15 1025.32 1024.49 1023.81 1022.87 1022.42 1021.79 1020.98 1020.38 1019.95 1019.40 1018.33 1017.43 1016.84
1030.04 1029.85 1029.81 1029.77 1029.78 1029.82 1029.61 1029.52 1028.98 1028.36 1027.61 1026.91 1026.50 1026.26 1025.37 1024.15 1022.90 1022.24 1021.85 1021.16 1020.49 1019.87 1019.37 1019.00 1018.16 1016.90 1016.24
Wind_Speed
2 1 1 2 1 2 1 2 3 8 10 14 12 13 13 16 17 17 16 18 19 19 20 22 23 23 23
0 1 1 1 0 1 2 2 3 6 12 12 13 12 16 16 16 16 16 19 17 19 21 22 22 23 24
2 0 0 1 2 2 2 3 3 7 11 11 13 17 16 17 16 17 18 17 19 20 21 20 21 23 24
2 1 0 1 2 2 3 2 3 4 4 7 15 15 16 16 16 18 16 19 20 20 19 19 22 23 25
2 0 1 2 1 1 1 3 4 1 3 3 4 4 5 9 12 16 21 20 19 17 19 22 23 24 26
2 1 1 1 1 2 1 2 3 1 1 5 2 6 4 4 16 21 20 17 16 20 23 22 25 25 26
3 3 2 3 1 3 2 2 3 4 1 5 2 5 4 6 19 19 16 15 21 23 22 24 25 26 26
4 1 3 4 4 3 2 3 3 3 2 6 2 4 7 7 17 15 11 21 22 22 24 26 24 25 26
7 7 8 7 8 3 3 3 3 3 1 3 3 10 8 4 3 10 21 20 22 22 25 23 23 25 16
4 6 7 7 10 5 2 2 3 3 2 6 7 6 7 2 4 8 5 16 20 24 22 21 22 10 10
3 3 3 4 3 3 2 1 2 3 6 4 3 4 3 9 3 6 8 6 10 11 17 20 22 21 12
3 1 1 2 3 4 4 4 4 6 7 4 3 3 6 9 10 4 9 7 8 7 7 13 20 22 23
1 1 2 3 4 4 4 5 5 6 6 5 4 6 4 7 10 9 13 5 8 6 8 8 9 9 11
1 2 2 2 2 2 2 2 3 5 6 6 6 4 6 7 8 12 9 6 8 10 9 8 8 8 9
1 1 1 2 2 2 1 3 4 7 7 7 7 6 7 10 9 9 9 9 9 9 9 9 9 8 9
1 1 2 2 3 3 2 1 4 8 7 7 6 6 5 5 13 9 7 8 8 9 8 8 10 9 8
2 1 1 2 6 3 3 3 8 8 8 6 2 6 8 10 9 12 9 10 9 9 7 6 8 11 9
Wind_Direction
92 203 97 97 15 13 48 89 360 353 354 346 339 337 337 338 333 332 334 335 330 326 328 332 326 320 319
170 28 69 247 232 13 5 18 4 348 343 343 333 331 335 331 330 330 334 329 322 327 328 319 320 323 322
143 72 125 27 43 29 20 343 319 339 334 347 342 332 333 329 331 333 327 321 324 321 317 317 321 320 318
93 97 301 24 78 75 354 284 295 314 340 356 333 327 328 328 330 319 320 323 317 316 314 320 320 318 317
91 62 350 27 56 301 264 300 293 286 330 323 304 300 299 315 317 313 321 318 315 316 322 319 316 315 313
135 73 329 281 282 261 263 340 324 262 331 304 262 290 290 288 306 315 315 317 320 328 321 320 317 314 317
143 196 210 221 226 289 256 222 246 283 299 288 254 289 278 296 304 312 317 323 327 323 323 320 318 316 313
98 135 238 286 224 230 263 282 281 268 243 284 295 295 302 283 290 313 322 326 323 322 321 321 317 316 313
61 34 21 11 24 24 3 356 309 294 355 308 308 308 297 267 287 332 322 319 318 316 320 318 319 320 316
18 16 38 34 50 65 71 2 302 302 246 334 317 344 318 302 329 300 286 304 311 316 315 317 322 313 307
84 63 35 24 336 314 349 281 244 257 294 317 321 302 255 305 291 299 296 301 299 300 303 308 314 316 307
70 44 282 273 291 313 291 274 251 245 274 263 241 259 286 293 296 296 301 292 279 289 290 296 305 307 307
115 254 241 262 293 308 305 285 273 278 292 278 249 273 254 278 288 303 309 304 293 288 302 296 299 302 305
206 245 289 330 311 281 302 316 332 318 301 275 269 247 275 266 281 295 296 295 299 295 294 295 296 292 291
273 332 313 299 279 288 323 358 318 305 299 303 298 255 253 264 282 279 286 284 282 288 301 302 300 296 292
299 251 268 306 309 331 345 272 293 305 299 297 301 313 301 273 260 284 284 285 289 292 292 297 300 305 296
248 273 295 281 323 290 280 281 314 303 287 289 297 308 308 302 300 291 305 295 293 293 287 264 282 295 298